Powrót do katalogu

THOR ABLESTAR DEB

AktywnyLEO
NORAD 560·DEBRIS·🇺🇸 United States

Wystrzelony Jun 29, 1961 z Cape Canaveral Space Force Station

Loading…

Następne Przeloty (najbliższe 24 godziny)

TLE

ŚwieżeSource: Space-Track

Epoka: Sep 13, 2026, 19:03 UTC

1 00560U 61015GS  26256.79422902  .00001636  00000-0  16880-2 0  9991
2 00560  67.1598  50.4542 0305292 241.9687 115.0192 13.59696346166450

Śledź THOR ABLESTAR DEB w czasie rzeczywistym z AllMySat

Download on the App Store